Погода в Неелово 1-ом

Россия / Псковская область     57°47′34″N   28°12′05″E
темп.,
°C
ветер,
м/с
пор.,
м/с
влажн.,
%
обл.,
%
осадки,
мм/ч
давл.,
гПа
погр.,
м
11 апреля, вс
вс1100:000зюз22820 0.0 102028
03:000ююз22760 0.0 102214
06:000ююз117827 0.0 102310
09:00+4юв126494 0.0 1025256
12:00+8ююв235371 0.0 10251097
15:00+9ююв4466100 0.0 1026837
18:00+6вюв2784100 0.0 1026243
21:00+6вюв399282 0.0 1026266
12 апреля, пн
пн1200:00+6юв3995100 0.0 1026211
03:00+6ююв3119285 0.0 1025212
06:00+6ююв4138694 0.0 1025304
09:00+9ююв51470100 0.0 1025517
12:00+13ю61253100 0.0 10241041
15:00+16ю61044100 0.0 10231627
18:00+15ююв5104697 0.0 10211608
21:00+10ююв396999 0.0 1021184
13 апреля, вт
вт1300:00+8ююв3117657 0.0 1020232
03:00+7ю2677100 0.0 1020126
06:00+7ююв3776100 0.1 1019173
09:00+8ю3774100 0.1 1019246
12:00+12ююз3660100 0.0 1020731
15:00+8сз3593100 0.9 1021330
18:00+5сз4890100 0.8 1022448
21:00+5сз2589100 0.9 1023251
14 апреля, ср
ср1400:00+4сз2685100 0.0 1023267
03:00+3сз3775100 0.0 1023286
06:00+2ссз3885100 0.0 1023286
09:00+3ссз4777100 0.0 1024400
12:00+5с4668100 0.0 1024636
15:00+6ссв4565100 0.1 1024914
18:00+7с3658100 0.0 10231005
21:00+5с4862100 0.0 1025418
15 апреля, чт
чт1500:00+3с3866100 0.0 1025365
03:00+2с3973100 0.0 1025346
06:000с3980100 0.0 1025252
09:00+4ссв4962100 0.0 1026550
12:00+8ссв5744100 0.0 10261278
15:00+10ссв57363 0.0 10261663
18:00+10ссв58410 0.0 10261687
21:00+5ссв410580 0.0 1028273